Simultaneous Nadir Overpasses (SNOs) Predictions

Prediction of SNOs between NOAA-19 and NPP Satellite Orbit:

Table of predicted SNOs for the next 14.0 days since TLE Epoch: 3/6/2016
Index Date (NOAA-19) Time (NOAA-19) Lat,Lon (NOAA-19) SZA (NOAA-19 ) Date (NPP) Time (NPP) Lat,Lon (NPP) SZA (NPP ) Distance(km) Time Diff (sec)
1 03/18/2016 08:05:20 81.02, 5.32 85.60 03/18/2016 08:06:33 81.01, 5.43 85.55 1.92 73
2 03/18/2016 08:56:19 -81.02, 172.61 94.42 03/18/2016 08:57:19 -81.02, 172.48 94.43 2.38 60
3 03/18/2016 09:47:22 81.02, -20.12 85.57 03/18/2016 09:48:03 81.01, -20.01 85.53 2.00 41
4 03/18/2016 10:38:21 -81.02, 147.17 94.46 03/18/2016 10:38:49 -81.02, 147.04 94.45 2.43 28
5 03/18/2016 11:29:24 81.02, -45.56 85.53 03/18/2016 11:29:33 81.02, -45.44 85.51 2.11 9
6 03/18/2016 12:20:22 -81.02, 122.11 94.54 03/18/2016 12:20:18 -81.01, 121.98 94.53 2.46 4
7 03/18/2016 13:11:26 81.02, -71.00 85.49 03/18/2016 13:11:03 81.02, -70.87 85.49 2.25 23
8 03/18/2016 14:02:24 -81.02, 96.68 94.58 03/18/2016 14:01:48 -81.01, 96.54 94.55 2.37 36
9 03/18/2016 14:53:28 81.02, -96.45 85.46 03/18/2016 14:52:33 81.02, -96.31 85.47 2.42 55




NCC Satellite Simultaneous Nadir Overpasses (SNOs) Prediction Service
